Home   Weather   Halls Creek   Past weeks
Flag for Australia

Past Weather in Halls Creek, Western Australia, Australia — Yesterday and Last 2 Weeks

Now
98 °F

Extremely hot.


Feels Like: 98 °F
Forecast: 103 / 82 °F
Wind: 9 mph from Southwest

Location: Halls Creek Airport

Current Time: Feb 18, 2019 at 12:44:04 pm

Latest Report: Feb 18, 2019 at 12:00 pm


Visibility: N/A

Pressure: 29.75 "Hg

Humidity: 28%

Dew Point: 60 °F

Location of Halls CreekLocation

Past Weather in Halls Creek — Graph

°F

Halls Creek Temperature Yesterday

Maximum temperature yesterday: 100 °F (at 2:00 pm)
Minimum temperature yesterday: 78 °F (at 5:00 am)
Average temperature yesterday: 89 °F

High & Low Weather Summary for the Past Weeks

 TemperatureHumidityPressure
High108 °F (Feb 14, 2:00 pm)90% (Feb 16, 5:00 am)29.86 "Hg (Feb 16, 5:00 am)
Low73 °F (Feb 3, 6:00 pm)8% (Feb 14, 3:00 pm)29.53 "Hg (Feb 5, 3:00 pm)
Average89 °F49%29.71 "Hg
* Reported Feb 3 11:00 am — Feb 18 11:00 am, Halls Creek. Weather by CustomWeather, © 2019

Note: Actual official high and low records may vary slightly from our data, if they occured in-between our weather recording intervals... More about our weather records

Advertising

Halls Creek Weather History for the Previous 24 Hours

Scroll right to see more
 ConditionsComfort  
Time TempWeatherWind HumidityBarometerVisibility
11:00 am
Mon, Feb 18
96 °FExtremely hot.10 mph33%29.77 "HgN/A
9:00 am91 °FHot.14 mph40%29.79 "HgN/A
8:00 am87 °FWarm.13 mph44%29.80 "HgN/A
6:00 am78 °FWarm.6 mph65%29.78 "HgN/A
5:00 am78 °FWarm.6 mph65%29.76 "HgN/A
3:00 am79 °FWarm.7 mph62%29.73 "HgN/A
2:00 am79 °FWarm.1 mph61%29.73 "HgN/A
12:00 am81 °FWarm.5 mph56%29.74 "HgN/A
11:00 pm
Sun, Feb 17
83 °FWarm.9 mph52%29.75 "HgN/A
9:00 pm87 °FOvercast.8 mph43%29.74 "HgN/A
8:00 pm87 °FWarm.10 mph45%29.73 "HgN/A
6:00 pm92 °FOvercast.12 mph33%29.68 "HgN/A
5:00 pm95 °FExtremely hot.14 mph29%29.66 "HgN/A
3:00 pm100 °FScattered clouds.5 mph21%29.66 "HgN/A
2:00 pm100 °FExtremely hot.3 mph24%29.68 "HgN/A
12:00 pm98 °FExtremely hot.5 mph29%29.74 "HgN/A
Weather by CustomWeather, © 2019

See weather overview